Location: Prairie State College
(41.5244°N, 87.6382°W)
Time: 22:41:22
(UTC-05:00)

MSX - Visible Passes

Search period start: 24 September 2016 00:00
Search period end: 04 October 2016 00:00
Orbit: 895 x 905 km, 98.7° (Epoch: 13 September)

Date Brightness Start Highest point End Pass type
(mag) Time Alt. Az. Time Alt. Az. Time Alt. Az.
24 Sep 5.6 19:39:13 10° SSW 19:44:25 35° W 19:49:40 10° NNW visible
25 Sep 5.7 19:42:05 10° SSW 19:47:13 33° W 19:52:23 10° NNW visible
26 Sep 5.8 19:44:58 10° SSW 19:50:00 32° W 19:55:06 10° NNW visible
27 Sep 5.9 19:47:51 10° SSW 19:52:48 30° W 19:57:49 10° NW visible
28 Sep 6.0 19:50:45 10° SSW 19:55:36 28° W 20:00:31 10° NW visible
29 Sep 6.1 19:53:39 10° SSW 19:58:23 27° W 20:03:13 10° NW visible
30 Sep 6.1 19:56:34 10° SSW 20:01:12 25° W 20:05:54 10° NW visible
01 Oct 6.2 19:59:29 10° SW 20:04:00 24° W 20:08:35 10° NW visible
02 Oct 6.3 20:02:24 10° SW 20:06:48 23° W 20:11:15 10° NW visible
03 Oct 6.4 20:05:21 10° SW 20:09:37 21° W 20:13:55 10° NW visible
